Location: Dead Woman Crossing
(43.5369°N, 106.3228°W)
Time: 04:50:57
(UTC+00:00)

COSMOS 2251 DEB - Pass Details

Date: 01 December 2022
Orbit: 765 x 800 km, 74.0° (Epoch: 27 January)

Event Time Altitude Azimuth Distance (km) Brightness Sun altitude
Rises 03:03:34 0° 326° (NW) 3,255 ? -38.0°
Reaches altitude 10° 03:06:28 10° 311° (NW) 2,318 ? -38.5°
Enters shadow 03:10:05 21° 267° (W) 1,672 ? -39.2°
